Wilmington, NC

5:29 AM EDT on July 21, 2017 (GMT -0400)
Wilmington International

Weather History for KILM - March, 2014

Change the Weather History Date:

Tuesday, March 25, 2014

  Actual Average Record
Temperature  
Mean Temperature 46 °F 57 °F  
Max Temperature 56 °F 69 °F 83 °F (1935)
Min Temperature 36 °F 46 °F 28 °F (1983)
Degree Days  
Heating Degree Days 19 8  
Month to date heating degree days 350 277  
Since 1 July heating degree days 2284 2206  
Cooling Degree Days 0 1  
Month to date cooling degree days 0 10  
Year to date cooling degree days 5 15  
Moisture  
Dew Point 42 °F    
Average Humidity 75    
Maximum Humidity 93    
Minimum Humidity 56    
Precipitation  
Precipitation 0.39 in 0.13 in 1.76 in (1994)
Month to date precipitation 3.46 3.43  
Year to date precipitation 8.92 10.81  
Snow  
Snow 0.00 in 0.10 in 1.30 in (1983)
Month to date snowfall 0.0 0.2  
Since 1 July snowfall 1.0 1.7  
Snow Depth 0.00 in    
Sea Level Pressure  
Sea Level Pressure 29.82 in    
Wind  
Wind Speed 10 mph (NNW)    
Max Wind Speed 24 mph    
Max Gust Speed 32 mph    
Visibility 8 miles    
Events Rain    
T = Trace of Precipitation, MM = Missing Value Source: NWS Daily Summary

Daily Weather History Graph

Daily Weather History Graph

Search for Another Location

Airport or City:

Trip Planner

Search our weather history database for the weather conditions in past years. The results will help you decide how hot, cold, wet, or windy it might be!

Date:

Astronomy

Mar. 25, 2014 Rise Set
Actual Time 7:08 AM EDT 7:27 PM EDT
Civil Twilight 6:43 AM EDT 7:52 PM EDT
Nautical Twilight 6:14 AM EDT 8:21 PM EDT
Astronomical Twilight 5:44 AM EDT 8:51 PM EDT
Moon 3:15 AM EDT (3/25) 2:08 PM EDT (3/25)
Length of Visible Light 13h 08m
Length of Day
12h 18m
Waning Crescent, 32% of the Moon is Illuminated
Mar 25
Waning Crescent
Mar 30
New
Apr 7
First Quarter
Apr 15
Full
Apr 22
Last Quarter

Hourly Weather History & Observations

Time (EDT) Temp. Windchill Dew Point Humidity Pressure Visibility Wind Dir Wind Speed Gust Speed Precip Events Conditions
12:53 AM 37.0 °F 34.5 °F 30.9 °F 79% 30.11 in 10.0 mi ENE 3.5 mph - N/A   Clear
1:53 AM 37.0 °F 31.6 °F 32.0 °F 82% 30.08 in 10.0 mi NNE 6.9 mph - N/A   Clear
2:53 AM 39.0 °F 35.7 °F 33.1 °F 79% 30.05 in 10.0 mi East 4.6 mph - N/A   Partly Cloudy
3:53 AM 46.9 °F - 35.1 °F 63% 30.01 in 10.0 mi ENE 9.2 mph - N/A   Mostly Cloudy
4:53 AM 48.0 °F - 34.0 °F 58% 29.99 in 10.0 mi ENE 9.2 mph - N/A   Overcast
5:53 AM 48.9 °F - 33.1 °F 54% 29.97 in 10.0 mi East 8.1 mph - N/A   Overcast
6:53 AM 44.1 °F 41.5 °F 37.9 °F 79% 29.97 in 9.0 mi NNE 4.6 mph - 0.02 in Rain Light Rain
7:53 AM 42.1 °F - 37.9 °F 85% 29.96 in 7.0 mi Calm Calm - 0.04 in Rain Light Rain
8:53 AM 44.1 °F 40.8 °F 41.0 °F 89% 29.94 in 10.0 mi East 5.8 mph - 0.02 in Rain Light Rain
9:53 AM 48.0 °F - 44.1 °F 86% 29.92 in 10.0 mi NNE 6.9 mph - 0.00 in Rain Light Rain
10:05 AM 48.0 °F - 44.1 °F 86% 29.91 in 9.0 mi NE 6.9 mph - 0.01 in Rain Light Rain
10:53 AM 48.9 °F - 46.0 °F 90% 29.91 in 4.0 mi ESE 4.6 mph - 0.06 in Rain Rain
11:42 AM 50.0 °F - 46.0 °F 86% 29.84 in 10.0 mi East 12.7 mph 21.9 mph 0.03 in Rain Light Rain
11:53 AM 51.1 °F - 48.0 °F 89% 29.83 in 10.0 mi East 11.5 mph 19.6 mph 0.03 in   Mostly Cloudy
12:53 PM 54.0 °F - 46.9 °F 77% 29.78 in 10.0 mi ENE 12.7 mph - N/A   Mostly Cloudy
1:53 PM 55.0 °F - 45.0 °F 69% 29.75 in 10.0 mi Calm Calm - N/A   Mostly Cloudy
2:09 PM 54.0 °F - 46.0 °F 75% 29.75 in 2.5 mi Calm Calm - 0.01 in Rain Rain
2:30 PM 54.0 °F - 46.9 °F 77% 29.74 in 5.0 mi Calm Calm - 0.05 in Rain Light Rain
2:53 PM 53.1 °F - 48.0 °F 83% 29.73 in 10.0 mi NNW 5.8 mph - 0.06 in   Overcast
3:02 PM 53.1 °F - 48.0 °F 83% 29.72 in 10.0 mi NW 12.7 mph - N/A   Overcast
3:15 PM 50.0 °F - 46.9 °F 89% 29.71 in 8.0 mi NW 11.5 mph - 0.00 in Rain Light Rain
3:48 PM 48.2 °F - 46.4 °F 93% 29.71 in 2.5 mi NW 12.7 mph - 0.02 in Rain Light Rain
3:53 PM 48.9 °F - 46.0 °F 90% 29.70 in 1.8 mi NW 11.5 mph - 0.08 in Rain Rain
3:55 PM 48.9 °F - 46.0 °F 90% 29.70 in 2.0 mi NW 12.7 mph - 0.00 in Rain Light Rain
3:58 PM 48.9 °F - 46.0 °F 90% 29.70 in 3.0 mi NW 11.5 mph - 0.00 in Rain Light Rain
4:03 PM 48.9 °F - 46.0 °F 90% 29.70 in 8.0 mi WNW 10.4 mph - 0.01 in Rain Light Rain
4:11 PM 48.9 °F - 46.0 °F 90% 29.70 in 4.0 mi NW 11.5 mph - 0.02 in Rain Light Rain
4:20 PM 48.9 °F - 46.0 °F 90% 29.70 in 7.0 mi NW 11.5 mph - 0.02 in Rain Light Rain
4:53 PM 48.9 °F - 46.0 °F 90% 29.70 in 5.0 mi NW 13.8 mph - 0.03 in Rain Light Rain
5:21 PM 48.0 °F - 44.1 °F 86% 29.71 in 2.5 mi WNW 17.3 mph 23.0 mph 0.03 in Rain Rain
5:30 PM 48.0 °F - 44.1 °F 86% 29.72 in 3.0 mi WNW 16.1 mph - 0.04 in Rain Light Rain
5:37 PM 48.0 °F - 44.1 °F 86% 29.72 in 8.0 mi NW 15.0 mph - 0.05 in Rain Light Rain
5:53 PM 48.0 °F - 44.1 °F 86% 29.71 in 10.0 mi NW 10.4 mph 18.4 mph 0.05 in   Overcast
6:08 PM 48.0 °F - 44.1 °F 86% 29.71 in 10.0 mi NW 12.7 mph - N/A   Mostly Cloudy
6:14 PM 48.0 °F - 44.1 °F 86% 29.71 in 10.0 mi NW 12.7 mph - N/A   Overcast
6:29 PM 48.0 °F - 43.0 °F 83% 29.72 in 10.0 mi NW 15.0 mph - N/A   Overcast
6:53 PM 46.9 °F - 42.1 °F 83% 29.73 in 10.0 mi NW 19.6 mph - N/A   Overcast
7:20 PM 46.0 °F 39.6 °F 41.0 °F 83% 29.76 in 10.0 mi NW 15.0 mph 28.8 mph N/A   Overcast
7:42 PM 46.0 °F 39.0 °F 39.9 °F 79% 29.77 in 10.0 mi NW 17.3 mph 24.2 mph N/A   Overcast
7:53 PM 46.0 °F 38.5 °F 39.0 °F 76% 29.78 in 10.0 mi WNW 19.6 mph 31.1 mph N/A   Overcast
8:05 PM 45.0 °F 37.6 °F 39.0 °F 80% 29.78 in 10.0 mi NW 17.3 mph - N/A   Overcast
8:53 PM 44.1 °F 35.7 °F 37.9 °F 79% 29.81 in 9.0 mi WNW 20.7 mph 32.2 mph 0.00 in Rain Light Rain
9:53 PM 43.0 °F 34.8 °F 36.0 °F 76% 29.84 in 10.0 mi NW 18.4 mph 27.6 mph 0.00 in   Mostly Cloudy
10:53 PM 42.1 °F 34.2 °F 35.1 °F 76% 29.88 in 10.0 mi NW 16.1 mph 25.3 mph N/A   Scattered Clouds
11:53 PM 41.0 °F 33.1 °F 30.9 °F 67% 29.91 in 10.0 mi NW 15.0 mph 21.9 mph N/A   Clear